(136818) Selqet = 1997 MW1

Discovered at Goodricke-Pigott on 1997-06-29 by R. A. Tucker.
(136818) Selqet = 1997 MW1

Selqet was the ancient Egyptian goddess of magic and protector of the other gods from the destroyer, Apep. She was one of the four guardians of the deceased. Her aid was beseeched by those afflicted by scorpion or other stings. The scorpion was her sacred creature. [Ref: Minor Planet Circ. 60302]

Orbit

Orbit type: Aten
Near-Earth Object

Note: WebGL enabled browser required.

epoch2022-01-21.0
epoch JD2459600.5
perihelion date2021-07-30.70327
perihelion JD2459426.20327
argument of perihelion (°)203.82598
ascending node (°)259.93213
inclination (°)12.77746
eccentricity0.3463099
perihelion distance (AU)0.6128413
Tisserand w.r.t. Jupiter6.3
ΔV w.r.t. Earth (km/sec)8.7
semimajor axis (AU)0.9375105
mean anomaly (°)189.24694
mean daily motion (°/day)1.08577450
aphelion distance (AU)1.262
period (years)0.91
P-vector [x]-0.22797392
P-vector [y]0.92509171
P-vector [z]0.30369923
Q-vector [x]-0.94900413
Q-vector [y]-0.14135515
Q-vector [z]-0.28179761
absolute magnitude18.98
phase slope0.15
uncertainty0
referenceMPO 694071
observations used639
oppositions12
arc length (days)7982
first opposition used1997
last opposition used2019
residual rms (arc-secs)0.77
perturbers coarse indicatorM-v
perturbers precise indicator003Ek
first observation date used1997-06-29.0
last observation date used2019-05-07.0
computer namePan
Minimum Orbit Intersection Distances (in AU)
for orbit epoch: 2458600.5, reference: MPO453850
Mercury0.31074
Venus0.08543
Earth0.11309
Mars0.21927
Jupiter3.89139
Saturn8.47312
Uranus17.4298
Neptune28.8626

Observations

656 total observations over interval: 1997 06 29.35705 – 2019 05 07.60859
These data are available for download (format description).

Date (UT) J2000 RA J2000 Dec Magn Location Ref
1997 06 29.35705 18 26 18.76 -03 41 41.0   683 – Goodricke-Pigott Observatory, Tucson MPC 30162
1997 06 29.46028 18 25 50.53 -03 38 47.5 17.1 R 683 – Goodricke-Pigott Observatory, Tucson MPC 30162
1997 06 30.23238 18 22 29.61 -03 17 22.6 17.1 R 683 – Goodricke-Pigott Observatory, Tucson MPC 30162
1997 06 30.41779 18 21 38.89 -03 12 15.5   683 – Goodricke-Pigott Observatory, Tucson MPC 30162
1997 06 30.71418 18 20 21.93 -03 04 14.8 18.8 V 402 – Dynic Astronomical Observatory MPC 30139
1997 06 30.71557 18 20 21.58 -03 04 13.7   402 – Dynic Astronomical Observatory MPC 30139
1997 06 30.71696 18 20 21.20 -03 04 11.9   402 – Dynic Astronomical Observatory MPC 30139
1997 07 01.19093 18 18 20.55 -02 51 26.6   683 – Goodricke-Pigott Observatory, Tucson MPC 30162
1997 07 01.20080 18 18 18.10 -02 51 12.2   683 – Goodricke-Pigott Observatory, Tucson MPC 30162
1997 07 01.22728 18 18 10.81 -02 50 29.3   683 – Goodricke-Pigott Observatory, Tucson MPC 30162
1997 07 01.23898 18 18 07.76 -02 50 11.1   683 – Goodricke-Pigott Observatory, Tucson MPC 30162
1997 07 01.29855 18 17 51.67 -02 48 35.9 17.6 R 691 – Steward Observatory, Kitt Peak-Spacewatch MPC 30175
1997 07 01.30313 18 17 50.40 -02 48 28.0   691 – Steward Observatory, Kitt Peak-Spacewatch MPC 30175
1997 07 01.54208 18 16 49.48 -02 41 36.7   422 – Loomberah MPC 30140
1997 07 01.54316 18 16 49.28 -02 41 31.9   422 – Loomberah MPC 30140
1997 07 01.54395 18 16 48.96 -02 41 33.9   422 – Loomberah MPC 30140
1997 07 01.54700 18 16 48.08 -02 41 28.2 19.1 R 422 – Loomberah MPC 30140
1997 07 01.54810 18 16 47.80 -02 41 26.5 19.2 R 422 – Loomberah MPC 30140
1997 07 01.57264 18 16 41.69 -02 41 25.2 17.5 V 355 – Hadano MPC 30138
1997 07 01.57701 18 16 40.30 -02 41 17.0   355 – Hadano MPC 30138
1997 07 01.85672 18 15 29.36 -02 34 04.4 18.0 V 046 – Klet Observatory, Ceske Budejovice MPC 30129
1997 07 01.85828 18 15 29.03 -02 34 02.8   046 – Klet Observatory, Ceske Budejovice MPC 30129
1997 07 01.86117 18 15 28.28 -02 33 58.5   046 – Klet Observatory, Ceske Budejovice MPC 30129
1997 07 01.90625 18 15 16.34 -02 32 49.1   557 – Ondrejov MPC 30143
1997 07 01.90830 18 15 15.80 -02 32 46.0 18.2 V 557 – Ondrejov MPC 30143
1997 07 01.90871 18 15 15.86 -02 32 41.0   108 – Montelupo MPC 30132
1997 07 01.91393 18 15 14.39 -02 32 34.8   108 – Montelupo MPC 30132
1997 07 02.26878 18 13 44.16 -02 23 22.1   683 – Goodricke-Pigott Observatory, Tucson MPC 30162
1997 07 02.28574 18 13 39.56 -02 22 55.1   683 – Goodricke-Pigott Observatory, Tucson MPC 30162
1997 07 02.31304 18 13 32.46 -02 22 14.6   683 – Goodricke-Pigott Observatory, Tucson MPC 30162
1997 07 02.60278 18 12 19.59 -02 14 55.7   355 – Hadano MPC 30336
1997 07 02.60836 18 12 18.16 -02 14 46.1   355 – Hadano MPC 30336
1997 07 03.25273 18 09 37.89 -01 58 50.8   658 – Dominion Astrophysical Observatory MPC 30152
1997 07 03.25377 18 09 37.65 -01 58 49.2   658 – Dominion Astrophysical Observatory MPC 30152
1997 07 03.25479 18 09 37.39 -01 58 47.9   658 – Dominion Astrophysical Observatory MPC 30152
1997 07 03.25582 18 09 37.15 -01 58 46.3   658 – Dominion Astrophysical Observatory MPC 30152
1997 07 03.41479 18 08 57.14 -01 54 39.3   568 – Maunakea MPC 30145
1997 07 03.41877 18 08 56.07 -01 54 33.4   568 – Maunakea MPC 30145
1997 07 03.42312 18 08 55.02 -01 54 27.4   568 – Maunakea MPC 30145
1997 07 03.68912 18 07 48.30 -01 47 31.2 18.3 R 422 – Loomberah MPC 30140
1997 07 03.69868 18 07 45.84 -01 47 17.2 19.1 R 422 – Loomberah MPC 30140
1997 07 03.70227 18 07 44.95 -01 47 12.4 18.9 R 422 – Loomberah MPC 30140
1997 07 03.72119 18 07 40.20 -01 46 44.0 18.6 R 422 – Loomberah MPC 30140
1997 07 03.86389 18 07 07.57 -01 43 59.7 18.4 V 104 – San Marcello Pistoiese MPC 30132
1997 07 03.87297 18 07 05.32 -01 43 46.5   104 – San Marcello Pistoiese MPC 30132
1997 07 03.87852 18 07 03.94 -01 43 38.8   104 – San Marcello Pistoiese MPC 30132
1997 07 03.88716 18 07 01.44 -01 43 28.9 16.7 R 046 – Klet Observatory, Ceske Budejovice MPC 30129
1997 07 03.89079 18 07 00.52 -01 43 22.8   046 – Klet Observatory, Ceske Budejovice MPC 30129
1997 07 03.89299 18 07 00.03 -01 43 20.5   046 – Klet Observatory, Ceske Budejovice MPC 30129
1997 07 03.90073 18 06 58.08 -01 43 09.6 18.2 V 473 – Remanzacco MPC 30141
1997 07 03.92588 18 06 51.89 -01 42 33.1   473 – Remanzacco MPC 30141
1997 07 03.94843 18 06 45.98 -01 42 01.3   557 – Ondrejov MPC 30143
1997 07 03.95031 18 06 45.51 -01 41 58.6   557 – Ondrejov MPC 30143
1997 07 04.34814 18 05 09.65 -01 32 20.5   568 – Maunakea MPC 30145
1997 07 04.38646 18 04 59.92 -01 31 27.0   568 – Maunakea MPC 30145
1997 07 04.42796 18 04 49.35 -01 30 28.7   568 – Maunakea MPC 30145
1997 07 04.61917 18 04 03.30 -01 26 09.6 18.5 V 402 – Dynic Astronomical Observatory MPC 30139
1997 07 04.62125 18 04 02.78 -01 26 06.7   402 – Dynic Astronomical Observatory MPC 30139
1997 07 04.62333 18 04 02.24 -01 26 03.7   402 – Dynic Astronomical Observatory MPC 30139
1997 07 04.91262 18 02 53.94 -01 19 26.4   620 – Observatorio Astronomico de Mallorca MPC 30150
1997 07 04.91574 18 02 53.16 -01 19 22.2   620 – Observatorio Astronomico de Mallorca MPC 30150
1997 07 04.93368 18 02 48.68 -01 18 57.9   620 – Observatorio Astronomico de Mallorca MPC 30150
1997 07 05.60694 18 00 09.06 -01 03 48.6 17.3 V 360 – Kuma Kogen MPC 30138
1997 07 05.61007 18 00 08.29 -01 03 44.5   360 – Kuma Kogen MPC 30138
1997 07 05.61319 18 00 07.53 -01 03 40.2   360 – Kuma Kogen MPC 30138
1997 07 06.57337 17 56 25.84 -00 42 58.4 18.8 V 402 – Dynic Astronomical Observatory MPC 30139
1997 07 06.57545 17 56 25.33 -00 42 55.3   402 – Dynic Astronomical Observatory MPC 30139
1997 07 06.57753 17 56 24.84 -00 42 53.1   402 – Dynic Astronomical Observatory MPC 30139
1997 07 06.86181 17 55 20.83 -00 36 59.0   104 – San Marcello Pistoiese MPC 30132
1997 07 06.86597 17 55 19.91 -00 36 53.6   104 – San Marcello Pistoiese MPC 30132
1997 07 06.86979 17 55 19.03 -00 36 48.7   104 – San Marcello Pistoiese MPC 30132
1997 07 06.87525 17 55 17.58 -00 36 44.9 18.7 V 046 – Klet Observatory, Ceske Budejovice MPC 30129
1997 07 06.87707 17 55 17.07 -00 36 43.4   046 – Klet Observatory, Ceske Budejovice MPC 30129
1997 07 06.87837 17 55 16.83 -00 36 41.8   046 – Klet Observatory, Ceske Budejovice MPC 30129
1997 07 06.87964 17 55 16.51 -00 36 40.6   046 – Klet Observatory, Ceske Budejovice MPC 30129
1997 07 06.88152 17 55 16.11 -00 36 37.5 18.4 V 046 – Klet Observatory, Ceske Budejovice MPC 30129
1997 07 07.42493 17 53 15.12 -00 24 50.1 18.7 R 422 – Loomberah MPC 30140
1997 07 07.42653 17 53 14.77 -00 24 49.0 19.0 R 422 – Loomberah MPC 30140
1997 07 07.42812 17 53 14.36 -00 24 46.7 18.6 R 422 – Loomberah MPC 30140
1997 07 08.89640 17 47 54.39 +00 02 57.0 18.7 V 046 – Klet Observatory, Ceske Budejovice MPC 30129
1997 07 08.90062 17 47 53.41 +00 03 02.0   046 – Klet Observatory, Ceske Budejovice MPC 30129
1997 07 08.90336 17 47 52.81 +00 03 05.1   046 – Klet Observatory, Ceske Budejovice MPC 30129
1997 07 08.94266 17 47 44.26 +00 03 50.0   587 – Sormano MPC 30147
1997 07 08.94822 17 47 43.06 +00 03 56.2   587 – Sormano MPC 30147
1997 07 08.95296 17 47 42.00 +00 04 01.1   587 – Sormano MPC 30147
1997 07 08.96334 17 47 39.62 +00 04 11.6   557 – Ondrejov MPC 30143
1997 07 08.96508 17 47 39.25 +00 04 13.4   557 – Ondrejov MPC 30143
1997 07 08.96684 17 47 38.83 +00 04 15.5   557 – Ondrejov MPC 30143
1997 07 09.88968 17 44 27.29 +00 20 51.9 18.7 V 046 – Klet Observatory, Ceske Budejovice MPC 30129
1997 07 09.89108 17 44 26.97 +00 20 53.2   046 – Klet Observatory, Ceske Budejovice MPC 30129
1997 07 09.89414 17 44 26.34 +00 20 56.9   046 – Klet Observatory, Ceske Budejovice MPC 30129
1997 07 09.91903 17 44 21.04 +00 21 25.8 18.5 V 599 – Campo Imperatore-CINEOS MPC 30148
1997 07 09.92245 17 44 20.17 +00 21 30.7   599 – Campo Imperatore-CINEOS MPC 30148
1997 07 09.92656 17 44 19.33 +00 21 34.2   599 – Campo Imperatore-CINEOS MPC 30148
1997 07 09.92998 17 44 18.58 +00 21 36.8   599 – Campo Imperatore-CINEOS MPC 30148
1997 07 09.97627 17 44 08.77 +00 22 22.7 18.6 R 118 – Astronomical and Geophysical Observatory, Modra MPC 30133
